Location: Sungai Bunut
(2.6333°N, 113.7333°E)
Time: 12:02:48
(UTC+00:00)

BREEZE-M R/B - Pass Details

Date: 16 October 2021
Orbit: 311 x 4482 km, 49.7° (Epoch: 29 November)

Event Time Altitude Azimuth Distance (km) Brightness Sun altitude
Rises 21:18:51 0° 219° (SW) 3,788 6.8 -13.2°
Reaches altitude 10° 21:22:19 10° 220° (SW) 2,284 5.7 -12.3°
Maximum altitude 21:27:01 78° 307° (NW) 483 2.4 -11.1°
Drops below altitude 10° 21:29:46 10° 34° (NNE) 1,347 5.1 -10.5°
Sets 21:31:22 0° 35° (NE) 2,076 6.2 -10.1°
